Wetterstats.de || Aktuelle Messwerte || Aktuelle Wetterkarten NEU! || Radar / Satellit NEU! || Wetterarchiv || Langzeitwerte NEU! || Klim. Kenntage || Met. Ereignisse || Agrarwerte || Echtzeitwerte

Monatsübersicht für Oktober 2020 Diagramm
 
Wetter Information zur Wetteranzeige
Zeitraffer
Tageslänge (hh:mm)
Höchsttemperatur in °C
Uhrzeit
Tiefsttemperatur in °C
Uhrzeit
Luftfeuchte (max., in %)
Uhrzeit
Luftfeuchte (min., in %)
Uhrzeit
Luftdruck (max., in hPa)
Uhrzeit
Luftdruck (min., in hPa)
Uhrzeit
Luftdruck (Ø, in hPa)
Regenrate (max, mm/h)
Uhrzeit
Niederschlag in mm
Verdunstung in mm
Solar in W/m² (Ø)
Solar in W/m² (max.)
UV-Index (max.)
Sonnenscheindauer (hh:mm)
Windrichtung (Ø)
Windstärke (Ø in km/h)
Windstärke (Ø in bft)
Windböe (max., in km/h)
Uhrzeit
Windböe (max., in bft)
Uhrzeit
Taupunkt (max., in °C)
Uhrzeit
Taupunkt (min., in °C)
Uhrzeit
Windchill (min., in °C)
Uhrzeit
Gewitterindex (max.)
Uhrzeit
Waldbrandindex (max.)
Uhrzeit
Graslandfeuerindex (max.)
Uhrzeit
Staubsturm-Index (max.)
Uhrzeit
01
Zeitraffer
11:39
17.4
15:00 Uhr
7.6
06:40 Uhr

97
08:45 Uhr
72
14:55 Uhr
1013.6
00:05 Uhr

1003.5
23:40 Uhr
1007.8
0,000
00:00 Uhr
0,000
1.397
203
667
12:50 Uhr
3.1
12:50 Uhr

04:04:00
3,0
1
16,1
15:20 Uhr

3
12.9
13:10 Uhr
6.7
06:40 Uhr
7.6
06:40 Uhr
5
19:20 Uhr
2.1
13:45 Uhr
3.6
15:20 Uhr
0.0
00:00 Uhr
02
Zeitraffer
11:34
16.8
15:00 Uhr
11.4
05:20 Uhr

97
06:30 Uhr
77
14:25 Uhr
1003.5
00:00 Uhr

999.3
23:55 Uhr
1001.8
0,000
00:00 Uhr
0,000
1.067
120
256
14:45 Uhr
1.6
11:50 Uhr

00:30:00
8,1
2
32,2
16:00 Uhr

5
13.2
14:55 Uhr
10.7
03:45 Uhr
9.2
23:35 Uhr
4
00:00 Uhr
2.0
13:00 Uhr
3.4
13:00 Uhr
1.0
16:30 Uhr
03
Zeitraffer
11:30
22.4
15:00 Uhr
12.8
00:35 Uhr

93
01:30 Uhr
61
14:50 Uhr
999.3
00:15 Uhr

992.0
17:55 Uhr
994.9
0,000
00:00 Uhr
0,000
2.413
258
622
13:25 Uhr
3.2
13:25 Uhr

08:04:00
9,1
2
32,2
14:50 Uhr

5
15.6
14:05 Uhr
11.5
00:25 Uhr
8.4
07:25 Uhr
8
19:15 Uhr
3.0
15:00 Uhr
4.5
14:55 Uhr
2.2
15:25 Uhr
04
Zeitraffer
11:27
18.9
14:00 Uhr
8.6
23:25 Uhr

94
08:20 Uhr
50
14:00 Uhr
1005.4
23:55 Uhr

993.5
03:15 Uhr
998.5
0,000
00:00 Uhr
0,000
2.184
247
513
11:35 Uhr
2.5
13:00 Uhr

05:05:00
4,3
1
37,0
14:15 Uhr

5
13.4
00:00 Uhr
6.1
23:20 Uhr
8.6
23:25 Uhr
7
00:00 Uhr
3.3
13:50 Uhr
4.9
15:05 Uhr
2.4
14:15 Uhr
05
Zeitraffer
11:22
16.9
12:00 Uhr
7.2
03:25 Uhr

94
20:00 Uhr
69
11:35 Uhr
1005.6
01:40 Uhr

1002.5
13:55 Uhr
1004.0
2,400
17:00 Uhr
0,400
0.889
129
326
10:40 Uhr
1.2
10:45 Uhr

02:28:00
3,2
1
17,7
08:30 Uhr

3
12.5
12:05 Uhr
5.6
01:50 Uhr
7.2
03:25 Uhr
4
12:05 Uhr
3.4
11:45 Uhr
5.0
11:30 Uhr
1.2
16:00 Uhr
06
Zeitraffer
11:18
15.9
16:00 Uhr
8.4
04:15 Uhr

91
04:15 Uhr
61
16:50 Uhr
1004.5
02:05 Uhr

1001.6
23:55 Uhr
1003.2
2,400
03:10 Uhr
0,400
1.245
148
548
13:10 Uhr
2.6
13:10 Uhr

02:48:00
6,3
1
37,0
12:00 Uhr

5
12.0
14:30 Uhr
7.0
04:10 Uhr
8.3
12:10 Uhr
3
20:45 Uhr
3.2
17:00 Uhr
5.0
17:00 Uhr
2.0
12:15 Uhr
07
Zeitraffer
11:14
16.3
14:00 Uhr
10.2
06:35 Uhr

93
20:45 Uhr
68
12:30 Uhr
1014.6
23:40 Uhr

1001.7
00:00 Uhr
1007.5
4,800
12:55 Uhr
1,600
1.143
168
675
12:30 Uhr
2.6
12:30 Uhr

02:12:00
5,0
1
25,7
12:35 Uhr

4
11.9
16:55 Uhr
8.9
06:40 Uhr
10.2
06:35 Uhr
3
19:05 Uhr
3.4
12:05 Uhr
5.9
10:40 Uhr
2.9
12:40 Uhr
08
Zeitraffer
11:10
14.7
13:00 Uhr
8.3
06:40 Uhr

95
07:40 Uhr
69
12:55 Uhr
1018.3
08:55 Uhr

1012.9
23:50 Uhr
1015.7
2,400
16:35 Uhr
3,000
1.118
156
522
12:30 Uhr
2.4
11:50 Uhr

02:53:00
7,1
2
35,4
12:45 Uhr

5
12.3
23:10 Uhr
7.4
06:40 Uhr
7.0
07:40 Uhr
5
23:10 Uhr
1.9
12:20 Uhr
4.7
13:05 Uhr
1.1
13:15 Uhr
09
Zeitraffer
11:06
15.2
13:00 Uhr
11.2
07:05 Uhr

96
22:00 Uhr
71
12:20 Uhr
1019.5
11:55 Uhr

1012.5
01:10 Uhr
1016.8
2,400
00:10 Uhr
3,600
0.864
112
551
11:10 Uhr
2.6
12:10 Uhr

01:01:00
5,2
1
32,2
05:25 Uhr

5
13.1
03:45 Uhr
9.6
06:20 Uhr
8.1
05:30 Uhr
5
00:00 Uhr
0.0
00:00 Uhr
2.4
12:50 Uhr
0.0
00:00 Uhr
10
Zeitraffer
11:02
12.7
14:00 Uhr
5.9
23:30 Uhr

97
05:05 Uhr
65
14:50 Uhr
1019.3
23:00 Uhr

1015.1
02:10 Uhr
1017.1
0,000
00:00 Uhr
0,000
0.991
140
481
11:55 Uhr
1.7
11:50 Uhr

02:06:00
4,7
1
29,0
10:55 Uhr

4
11.4
00:00 Uhr
4.1
23:55 Uhr
5.9
23:30 Uhr
4
00:00 Uhr
0.0
00:00 Uhr
1.3
14:55 Uhr
0.0
00:00 Uhr
11
Zeitraffer
10:57
11.1
16:00 Uhr
2.2
07:10 Uhr

95
07:35 Uhr
71
14:20 Uhr
1018.8
00:00 Uhr

1017.4
07:15 Uhr
1018.1
0,000
00:00 Uhr
0,000
0.813
137
620
14:05 Uhr
1.8
14:05 Uhr

02:04:00
2,7
1
17,7
10:15 Uhr

3
7.0
14:15 Uhr
1.3
07:20 Uhr
2.2
07:10 Uhr
0
00:00 Uhr
0.0
00:00 Uhr
2.2
14:40 Uhr
0.0
00:00 Uhr
12
Zeitraffer
10:54
12.0
14:00 Uhr
3.6
23:55 Uhr

94
23:25 Uhr
69
15:10 Uhr
1018.0
00:00 Uhr

1016.6
16:20 Uhr
1017.2
0,000
00:00 Uhr
0,000
0.914
146
607
13:45 Uhr
1.9
13:30 Uhr

01:49:00
3,0
1
20,9
15:40 Uhr

4
8.3
11:35 Uhr
2.6
23:55 Uhr
3.6
23:55 Uhr
0
00:00 Uhr
0.4
16:05 Uhr
2.5
14:30 Uhr
0.0
00:00 Uhr
13
Zeitraffer
10:50
12.6
13:00 Uhr
1.1
07:15 Uhr

96
06:25 Uhr
68
12:40 Uhr
1016.8
00:35 Uhr

1013.0
23:35 Uhr
1015.2
0,000
00:00 Uhr
0,000
1.041
171
412
12:40 Uhr
1.8
12:40 Uhr

03:18:00
3,3
1
24,1
23:50 Uhr

4
8.2
10:50 Uhr
0.3
07:15 Uhr
1.1
07:15 Uhr
0
00:00 Uhr
1.5
13:20 Uhr
2.7
12:10 Uhr
0.0
00:00 Uhr
14
Zeitraffer
10:46
10.4
11:00 Uhr
9.6
06:05 Uhr

95
23:20 Uhr
84
01:50 Uhr
1012.9
00:00 Uhr

1006.8
16:35 Uhr
1008.8
4,800
07:20 Uhr
14,000
0.457
42
96
11:30 Uhr
0.6
11:30 Uhr

00:00:00
10,4
2
38,6
11:35 Uhr

5
9.7
23:55 Uhr
7.6
02:00 Uhr
1.9
13:25 Uhr
2
18:50 Uhr
0.9
00:00 Uhr
2.2
00:00 Uhr
0.0
00:00 Uhr
15
Zeitraffer
10:42
11.9
14:00 Uhr
9.9
22:30 Uhr

95
00:00 Uhr
85
16:25 Uhr
1018.8
23:00 Uhr

1010.5
00:00 Uhr
1014.9
2,400
03:10 Uhr
0,600
0.406
53
143
14:45 Uhr
0.7
13:10 Uhr

00:00:00
8,0
2
29,0
10:35 Uhr

4
10.1
14:45 Uhr
9.0
22:30 Uhr
4.7
23:05 Uhr
2
00:00 Uhr
0.0
00:00 Uhr
0.0
00:00 Uhr
0.0
00:00 Uhr


 
Wetter Information zur Wetteranzeige
Zeitraffer
Tageslänge (hh:mm)
Höchsttemperatur in °C
Uhrzeit
Tiefsttemperatur in °C
Uhrzeit
Luftfeuchte (max., in %)
Uhrzeit
Luftfeuchte (min., in %)
Uhrzeit
Luftdruck (max., in hPa)
Uhrzeit
Luftdruck (min., in hPa)
Uhrzeit
Luftdruck (Ø, in hPa)
Regenrate (max, mm/h)
Uhrzeit
Niederschlag in mm
Verdunstung in mm
Solar in W/m² (Ø)
Solar in W/m² (max.)
UV-Index (max.)
Sonnenscheindauer (hh:mm)
Windrichtung (Ø)
Windstärke (Ø in km/h)
Windstärke (Ø in bft)
Windböe (max., in km/h)
Uhrzeit
Windböe (max., in bft)
Uhrzeit
Taupunkt (max., in °C)
Uhrzeit
Taupunkt (min., in °C)
Uhrzeit
Windchill (min., in °C)
Uhrzeit
Gewitterindex (max.)
Uhrzeit
Waldbrandindex (max.)
Uhrzeit
Graslandfeuerindex (max.)
Uhrzeit
Staubsturm-Index (max.)
Uhrzeit
16
Zeitraffer
10:38
11.9
11:00 Uhr
8.7
18:55 Uhr

94
00:00 Uhr
77
11:55 Uhr
1019.9
10:35 Uhr

1018.8
00:00 Uhr
1019.3
0,000
00:00 Uhr
0,000
0.737
118
457
10:55 Uhr
1.7
13:20 Uhr

01:06:00
6,2
1
24,1
10:30 Uhr

4
9.1
00:00 Uhr
7.2
23:55 Uhr
4.7
18:35 Uhr
2
00:00 Uhr
0.0
00:00 Uhr
0.0
00:00 Uhr
0.0
00:00 Uhr
17
Zeitraffer
10:34
13.8
13:00 Uhr
8.2
04:00 Uhr

95
05:35 Uhr
60
13:55 Uhr
1019.4
00:10 Uhr

1017.5
23:30 Uhr
1018.4
0,000
00:00 Uhr
0,000
1.016
163
628
12:55 Uhr
2.1
12:35 Uhr

02:17:00
3,1
1
16,1
22:35 Uhr

3
8.2
12:20 Uhr
5.2
15:15 Uhr
7.1
22:30 Uhr
0
00:00 Uhr
0.0
00:00 Uhr
0.0
00:00 Uhr
0.0
00:00 Uhr
18
Zeitraffer
10:30
9.4
11:00 Uhr
5.7
05:55 Uhr

95
03:00 Uhr
82
10:45 Uhr
1020.0
23:50 Uhr

1015.9
06:40 Uhr
1017.4
9,600
15:50 Uhr
2,400
0.432
64
161
11:30 Uhr
1.0
12:05 Uhr

00:05:00
7,7
2
33,8
12:25 Uhr

5
8.3
16:10 Uhr
4.9
06:00 Uhr
2.3
10:05 Uhr
0
00:00 Uhr
0.0
00:00 Uhr
0.4
00:00 Uhr
0.0
00:00 Uhr
19
Zeitraffer
10:26
11.4
14:00 Uhr
5.5
22:50 Uhr

96
05:50 Uhr
68
15:35 Uhr
1023.0
11:20 Uhr

1020.0
00:00 Uhr
1021.9
0,000
00:00 Uhr
0,000
0.686
118
364
10:30 Uhr
1.5
12:15 Uhr

01:47:00
3,3
1
19,3
13:45 Uhr

3
8.1
12:35 Uhr
4.6
22:25 Uhr
5.5
22:50 Uhr
0
00:00 Uhr
0.0
00:00 Uhr
0.0
00:00 Uhr
0.0
00:00 Uhr
20
Zeitraffer
10:22
12.2
16:00 Uhr
3.9
06:30 Uhr

96
00:45 Uhr
71
15:25 Uhr
1022.4
00:25 Uhr

1012.3
23:45 Uhr
1016.7
2,400
20:50 Uhr
0,600
0.914
139
331
15:05 Uhr
1.5
13:05 Uhr

01:30:00
4,4
1
25,7
11:25 Uhr

4
9.4
23:35 Uhr
3.1
06:25 Uhr
3.3
10:15 Uhr
2
22:05 Uhr
0.0
00:00 Uhr
0.3
15:05 Uhr
0.0
00:00 Uhr
21
Zeitraffer
10:19
14.9
23:00 Uhr
9.9
06:10 Uhr

94
06:30 Uhr
67
23:55 Uhr
1012.6
00:05 Uhr

1007.4
18:25 Uhr
1009.8
2,400
03:55 Uhr
1,800
0.533
69
179
11:45 Uhr
0.9
11:45 Uhr

00:00:00
4,1
1
24,1
23:50 Uhr

4
10.8
16:55 Uhr
8.8
05:00 Uhr
9.2
00:30 Uhr
2
00:00 Uhr
0.0
00:00 Uhr
0.0
00:00 Uhr
0.0
00:00 Uhr
22
Zeitraffer
10:14
19.5
14:00 Uhr
13.6
08:30 Uhr

86
19:35 Uhr
67
12:45 Uhr
1014.1
12:00 Uhr

1008.3
00:20 Uhr
1011.7
0,000
00:00 Uhr
0,000
1.575
162
503
11:55 Uhr
1.7
12:10 Uhr

03:27:00
6,5
1
29,0
03:10 Uhr

4
13.8
16:15 Uhr
9.1
00:20 Uhr
10.8
03:10 Uhr
5
14:10 Uhr
0.0
00:00 Uhr
0.0
00:00 Uhr
0.0
00:00 Uhr
23
Zeitraffer
10:10
16.9
14:00 Uhr
10.3
08:00 Uhr

96
18:30 Uhr
77
13:20 Uhr
1012.9
09:00 Uhr

1009.6
18:55 Uhr
1011.6
14,400
20:00 Uhr
10,400
0.559
92
452
12:40 Uhr
1.7
12:35 Uhr

00:22:00
1,7
0
16,1
20:00 Uhr

3
14.1
16:20 Uhr
9.4
08:00 Uhr
10.3
08:00 Uhr
7
18:30 Uhr
0.0
00:00 Uhr
0.1
13:05 Uhr
0.0
00:00 Uhr
24
Zeitraffer
10:06
17.0
16:00 Uhr
10.0
23:30 Uhr

97
00:50 Uhr
71
14:55 Uhr
1014.3
12:20 Uhr

1011.2
00:25 Uhr
1013.0
0,000
00:00 Uhr
0,000
1.270
182
547
12:10 Uhr
1.6
13:20 Uhr

04:58:00
4,8
1
29,0
12:10 Uhr

4
12.4
12:35 Uhr
8.4
23:30 Uhr
10.0
23:30 Uhr
4
00:00 Uhr
0.0
00:00 Uhr
0.0
00:00 Uhr
0.0
00:00 Uhr
25
Zeitraffer
10:02
17.3
13:00 Uhr
8.2
06:25 Uhr

94
06:45 Uhr
65
12:55 Uhr
1012.9
00:00 Uhr

1004.6
23:25 Uhr
1008.5
0,000
00:00 Uhr
0,000
1.422
198
395
10:50 Uhr
1.5
11:40 Uhr

05:41:00
4,5
1
30,6
12:10 Uhr

5
11.6
15:45 Uhr
7.2
06:20 Uhr
8.2
06:25 Uhr
2
00:10 Uhr
0.0
00:00 Uhr
0.0
00:00 Uhr
0.0
00:00 Uhr
26
Zeitraffer
09:59
13.6
13:00 Uhr
8.6
04:55 Uhr

95
21:20 Uhr
81
12:45 Uhr
1006.1
23:50 Uhr

1002.2
14:05 Uhr
1004.0
2,400
08:25 Uhr
0,400
0.406
87
487
12:35 Uhr
1.3
12:05 Uhr

00:44:00
2,4
1
16,1
11:35 Uhr

3
10.9
12:15 Uhr
7.5
04:55 Uhr
8.6
04:55 Uhr
2
00:25 Uhr
0.0
00:00 Uhr
0.0
00:00 Uhr
0.0
00:00 Uhr
27
Zeitraffer
09:55
12.7
13:00 Uhr
6.6
03:55 Uhr

95
03:20 Uhr
68
15:55 Uhr
1010.2
21:45 Uhr

1006.2
00:00 Uhr
1008.6
2,400
01:25 Uhr
0,200
0.889
113
482
12:45 Uhr
1.4
12:45 Uhr

00:54:00
6,0
1
30,6
12:55 Uhr

5
8.8
00:00 Uhr
5.6
23:55 Uhr
5.3
23:10 Uhr
0
00:00 Uhr
0.0
00:00 Uhr
0.6
13:10 Uhr
0.0
00:00 Uhr
28
Zeitraffer
09:51
13.2
14:00 Uhr
8.5
00:55 Uhr

90
20:55 Uhr
75
05:30 Uhr
1011.3
20:15 Uhr

1007.9
04:00 Uhr
1009.8
2,400
06:20 Uhr
0,200
0.813
105
325
13:30 Uhr
1.2
11:40 Uhr

01:14:00
7,0
1
29,0
11:30 Uhr

4
9.5
13:35 Uhr
5.3
01:05 Uhr
5.0
04:05 Uhr
2
17:20 Uhr
0.0
00:00 Uhr
0.5
14:20 Uhr
0.0
00:00 Uhr
29
Zeitraffer
09:47
11.9
15:00 Uhr
8.1
23:10 Uhr

93
05:40 Uhr
68
15:00 Uhr
1017.6
21:55 Uhr

1007.7
05:50 Uhr
1012.5
4,800
05:15 Uhr
2,800
1.067
119
523
10:35 Uhr
1.2
11:00 Uhr

01:58:00
8,9
2
32,2
12:30 Uhr

5
9.0
07:00 Uhr
5.3
22:55 Uhr
3.7
13:10 Uhr
2
06:20 Uhr
0.0
00:00 Uhr
0.2
03:05 Uhr
0.0
00:00 Uhr
30
Zeitraffer
09:43
13.7
18:00 Uhr
7.6
03:30 Uhr

97
10:25 Uhr
83
00:00 Uhr
1019.7
23:45 Uhr

1014.3
09:45 Uhr
1016.1
4,800
12:50 Uhr
8,800
0.229
36
113
11:25 Uhr
0.5
11:25 Uhr

00:00:00
7,2
2
27,4
17:10 Uhr

4
13.2
23:05 Uhr
5.1
01:10 Uhr
7.1
05:15 Uhr
6
23:05 Uhr
0.0
00:00 Uhr
0.0
00:00 Uhr
0.0
00:00 Uhr
31
Zeitraffer
09:40
14.8
12:00 Uhr
13.0
23:55 Uhr

97
02:35 Uhr
92
12:10 Uhr
1022.8
10:25 Uhr

1017.5
23:50 Uhr
1020.7
0,000
00:00 Uhr
1,600
0.279
55
131
10:35 Uhr
0.6
11:00 Uhr

00:00:00
4,0
1
19,3
00:30 Uhr

3
14.0
11:00 Uhr
12.3
23:50 Uhr
11.0
01:30 Uhr
6
17:15 Uhr
0.0
00:00 Uhr
0.0
00:00 Uhr
0.0
00:00 Uhr
Stationsstandorte || Wetterblog || Wissenswertes || Downloads || Seitenhistorie || Partner || Impressum / Datenschutz